[[{"header":{"parameterUnit":"m.s-1","parameterCategory":1,"la1":30.2992,"la2":30.254,"lo1":-89.0895,"lo2":-89.0443,"dy":0.0025,"dx":0.0025,"nx":19,"ny":19,"refTime":"2026-03-11T21:00:00:Z","depth":0,"parameterNumber":2,"parameterNumberName":"U-component_of_WINDS"},"data":[0,0,0,-2.3662,-2.3664,-2.3724,-2.3724,-2.3802,-2.3803,0,0,0,0,0,0,0,0,0,0,0,-2.3645,-2.3645,-2.3662,-2.3664,-2.3724,-2.3724,-2.3802,-2.3803,0,0,0,0,0,0,0,0,0,0,0,-2.3644,-2.3645,-2.3646,-2.3664,-2.3724,-2.3724,-2.3802,-2.3756,0,0,0,0,0,0,0,0,0,0,-2.3697,-2.3681,-2.3645,-2.3646,-2.3664,-2.3724,-2.3724,-2.3754,-2.3759,-2.3775,0,-2.3789,0,-2.3798,-2.3808,-2.3809,0,0,0,-2.3664,-2.3677,-2.3693,-2.3646,-2.3665,-2.3724,-2.3697,-2.3757,-2.3763,-2.3782,-2.3791,-2.3794,-2.3799,-2.3809,-2.3809,-2.3902,-2.3902,0,0,-2.366,-2.3656,-2.3689,-2.3697,-2.3687,-2.3695,-2.3699,-2.376,-2.3769,-2.3791,-2.3795,-2.38,-2.3809,-2.381,-2.3901,-2.3902,0,0,0,-2.3651,-2.3653,-2.3668,-2.3694,-2.3704,-2.3697,-2.3701,-2.3767,-2.3772,-2.3796,-2.3801,-2.381,-2.3811,-2.3901,-2.3902,-2.3918,0,0,0,-2.3649,-2.3648,-2.3666,-2.3664,-2.3703,-2.3736,-2.3706,-2.3768,-2.3775,-2.3801,-2.381,-2.3812,-2.3901,-2.3901,-2.3916,-2.3926,0,0,0,-2.3641,-2.3647,-2.3655,-2.3664,-2.369,-2.3735,-2.3744,-2.3769,-2.3778,-2.3809,-2.3812,-2.39,-2.3901,-2.3915,-2.3924,-2.3948,0,0,0,-2.363,-2.3669,-2.3656,-2.3701,-2.3689,-2.3745,-2.3744,-2.3786,-2.3815,-2.381,-2.3901,-2.3902,-2.3914,-2.3922,-2.3946,-2.3966,-2.3975,0,0,-2.3677,-2.3675,-2.3702,-2.3691,-2.3749,-2.3736,-2.3796,-2.3827,-2.3835,-2.3879,-2.3881,-2.3917,-2.3923,-2.3947,-2.4025,-2.4031,0,0,0,-2.3715,-2.3734,-2.3751,-2.3777,-2.3802,-2.3824,-2.3846,-2.3857,-2.3895,-2.3856,-2.3933,-2.3937,-2.3951,-2.3961,-2.3967,-2.3979,-2.3906,-2.3906,-2.3906,-2.3773,-2.3781,-2.3826,-2.3841,-2.3867,-2.389,-2.3911,-2.3931,-2.3931,-2.3949,-2.3962,-2.4008,-2.4019,-2.4023,-2.4036,-2.3974,-2.3974,-2.3974,-2.3974,-2.3841,-2.3869,-2.3868,-2.3912,-2.392,-2.3957,-2.398,-2.3979,-2.4015,-2.3999,-2.4012,-2.3992,-2.403,-2.4041,-2.3976,-2.3976,-2.3975,-2.3975,-2.3975,-2.3878,-2.3893,-2.3907,-2.3946,-2.3976,-2.399,-2.4024,-2.4031,-2.4037,-2.405,-2.4064,-2.4063,-2.4063,-2.4056,-2.4056,-2.4057,-2.4057,-2.4057,-2.4057,-2.3912,-2.3926,-2.3954,-2.3983,-2.4001,-2.4026,-2.405,-2.4068,-2.4089,-2.4091,-2.4092,-2.4089,-2.4033,-2.4018,-2.4059,-2.4059,-2.4059,-2.4058,-2.4058,-2.3975,-2.3962,-2.4004,-2.4022,-2.4057,-2.4086,-2.4095,-2.4131,-2.4147,-2.4163,-2.4159,-2.4117,-2.4115,-2.411,-2.4098,-2.4158,-2.4158,-2.4158,-2.4158,-2.4006,-2.4006,-2.4051,-2.4079,-2.4108,-2.4119,-2.4167,-2.4186,-2.4204,-2.4214,-2.4207,-2.4192,-2.4187,-2.4188,-2.4182,-2.417,-2.4247,-2.4247,-2.4247,-2.4045,-2.4048,-2.4087,-2.4104,-2.4132,-2.4156,-2.4201,-2.4234,-2.4251,-2.4251,-2.4223,-2.4219,-2.4194,-2.4185,-2.4183,-2.4173,-2.4152,0,0]},{"header":{"parameterUnit":"m.s-1","parameterCategory":1,"la1":30.2992,"la2":30.254,"lo1":-89.0895,"lo2":-89.0443,"dy":0.0025,"dx":0.0025,"nx":19,"ny":19,"refTime":"2026-03-11T21:00:00:Z","depth":0,"parameterNumber":3,"parameterNumberName":"V-component_of_WINDS"},"data":[0,0,0,3.312,3.3122,3.3223,3.3224,3.3345,3.3346,0,0,0,0,0,0,0,0,0,0,0,3.3083,3.3083,3.312,3.3122,3.3223,3.3224,3.3345,3.3346,0,0,0,0,0,0,0,0,0,0,0,3.3082,3.3083,3.3084,3.3123,3.3223,3.3224,3.3344,3.3272,0,0,0,0,0,0,0,0,0,0,3.3175,3.3132,3.3083,3.3084,3.3123,3.3223,3.3224,3.3268,3.3276,3.3295,0,3.3307,0,3.3328,3.3353,3.3354,0,0,0,3.3129,3.3126,3.316,3.3084,3.3124,3.3223,3.318,3.3273,3.3282,3.3305,3.3309,3.3314,3.333,3.3354,3.3354,3.3438,3.3438,0,0,3.3123,3.3097,3.3154,3.3165,3.3146,3.3176,3.3183,3.3278,3.3281,3.3309,3.3317,3.3332,3.3355,3.3355,3.3438,3.3438,0,0,0,3.3103,3.3093,3.3125,3.316,3.3179,3.3179,3.3186,3.3277,3.329,3.3318,3.3334,3.3355,3.3357,3.3438,3.3438,3.3418,0,0,0,3.31,3.3081,3.3122,3.3107,3.3176,3.3229,3.3183,3.3283,3.3295,3.3333,3.3355,3.3358,3.3438,3.3438,3.3418,3.3413,0,0,0,3.3079,3.3079,3.3091,3.3106,3.3148,3.3228,3.3246,3.3286,3.3304,3.3354,3.3358,3.3437,3.3438,3.3419,3.3414,3.3429,0,0,0,3.3049,3.3071,3.309,3.3121,3.3147,3.3214,3.3246,3.3297,3.3337,3.3356,3.3438,3.3438,3.3419,3.3414,3.3429,3.3438,3.3439,0,0,3.3062,3.3071,3.3092,3.3112,3.3168,3.3201,3.3256,3.3317,3.3346,3.3406,3.3409,3.3418,3.3414,3.3429,3.345,3.3451,0,0,0,3.3087,3.3102,3.3122,3.3159,3.3206,3.3248,3.3304,3.3328,3.338,3.3371,3.3428,3.3427,3.3437,3.3442,3.3443,3.3454,3.3439,3.3439,3.3439,3.3068,3.3104,3.3141,3.319,3.3226,3.3285,3.3319,3.3361,3.3386,3.34,3.3418,3.3426,3.3431,3.3432,3.3443,3.3424,3.3424,3.3424,3.3424,3.3091,3.3118,3.3154,3.3202,3.3242,3.3284,3.3343,3.3361,3.3408,3.3414,3.3425,3.343,3.3431,3.3443,3.3423,3.3423,3.3423,3.3424,3.3424,3.3083,3.3102,3.3131,3.319,3.3233,3.3283,3.3327,3.3361,3.3394,3.3405,3.343,3.343,3.3436,3.3414,3.3414,3.3414,3.3414,3.3414,3.3414,3.3063,3.3096,3.3128,3.3183,3.3213,3.3257,3.3319,3.3351,3.3395,3.3417,3.3417,3.3443,3.3423,3.3418,3.3415,3.3415,3.3415,3.3415,3.3415,3.3074,3.3078,3.3127,3.3157,3.3227,3.3269,3.3313,3.3375,3.3406,3.3428,3.3453,3.3432,3.3444,3.3444,3.344,3.3443,3.3443,3.3443,3.3443,3.3068,3.3078,3.3138,3.3185,3.3235,3.3281,3.334,3.339,3.3443,3.3466,3.347,3.3468,3.3467,3.348,3.3479,3.3476,3.3488,3.3488,3.3488,3.3078,3.3095,3.3136,3.3187,3.3245,3.3295,3.3352,3.3408,3.3468,3.3491,3.3485,3.3483,3.348,3.3476,3.3497,3.3495,3.3491,0,0]}]]